| time (UTC) | temp F | wind direction | speed MPH | gust MPH | rain 1hr in | rain 24hr in | rain mn in | humidity % | barometer mb |
| 20260507221217 | 50 | 0.0 | 0.0 | 0.00 | 0.00 | 0.00 | 83 | 1016.0 | |
| 20260507220217 | 50 | 0.0 | 0.0 | 0.00 | 0.00 | 0.00 | 83 | 1016.0 | |
| 20260507215215 | 50 | 0.0 | 0.0 | 0.00 | 0.00 | 0.00 | 82 | 1015.9 | |
| 20260507214215 | 50 | 0.0 | 0.0 | 0.00 | 0.00 | 0.00 | 83 | 1015.9 | |
| 20260507213215 | 51 | 0.0 | 0.0 | 0.00 | 0.00 | 0.00 | 82 | 1015.8 | |
| 20260507212215 | 51 | 0.0 | 0.0 | 0.00 | 0.00 | 0.00 | 82 | 1015.9 | |
| 20260507211215 | 51 | 0.0 | 0.0 | 0.00 | 0.00 | 0.00 | 81 | 1015.8 | |
| 20260507210215 | 51 | 0.0 | 0.0 | 0.00 | 0.00 | 0.00 | 80 | 1015.8 | |
| 20260507205215 | 51 | 0.0 | 0.0 | 0.00 | 0.00 | 0.00 | 78 | 1015.7 | |
| 20260507204215 | 51 | 0.0 | 0.0 | 0.00 | 0.00 | 0.00 | 77 | 1015.7 | |
| 20260507203215 | 51 | 0.0 | 0.0 | 0.00 | 0.00 | 0.00 | 77 | 1015.6 | |
| 20260507202215 | 52 | 0.0 | 0.0 | 0.00 | 0.00 | 0.00 | 75 | 1015.6 | |
| 20260507201215 | 52 | 0.0 | 0.0 | 0.00 | 0.00 | 0.00 | 74 | 1015.5 | |
| 20260507200215 | 52 | 0.0 | 0.0 | 0.00 | 0.00 | 0.00 | 74 | 1015.3 | |
| 20260507195215 | 52 | 0.0 | 0.0 | 0.00 | 0.00 | 0.00 | 73 | 1015.3 | |
| 20260507194217 | 53 | 0.0 | 0.0 | 0.00 | 0.00 | 0.00 | 72 | 1015.3 | |
| 20260507193217 | 53 | 0.0 | 0.0 | 0.00 | 0.00 | 0.00 | 71 | 1015.1 | |
| 20260507192217 | 53 | 0.0 | 0.0 | 0.00 | 0.00 | 0.00 | 70 | 1015.1 | |
| 20260507191217 | 54 | 0.0 | 0.0 | 0.00 | 0.00 | 0.00 | 69 | 1015.1 | |
| 20260507190217 | 54 | 0.0 | 0.0 | 0.00 | 0.00 | 0.00 | 68 | 1015.1 | |
| 20260507185217 | 55 | 0.0 | 0.0 | 0.00 | 0.00 | 0.00 | 66 | 1015.1 | |
| 20260507184217 | 55 | 0.0 | 0.0 | 0.00 | 0.00 | 0.00 | 64 | 1015.1 | |
| 20260507183217 | 56 | 0.0 | 0.0 | 0.00 | 0.00 | 0.00 | 62 | 1015.1 | |
| 20260507182217 | 56 | 0.0 | 0.0 | 0.00 | 0.00 | 0.00 | 62 | 1015.0 | |
| 20260507181217 | 57 | 0.0 | 0.0 | 0.00 | 0.00 | 0.00 | 57 | 1015.0 | |
| 20260507180217 | 57 | 0.0 | 0.0 | 0.00 | 0.00 | 0.00 | 57 | 1015.0 | |
| 20260507175217 | 58 | 0.0 | 0.0 | 0.00 | 0.00 | 0.00 | 55 | 1015.0 | |
| 20260507174217 | 58 | 0.0 | 0.0 | 0.00 | 0.00 | 0.00 | 54 | 1014.9 | |
| 20260507173257 | 58 | 0.0 | 0.0 | 0.00 | 0.00 | 0.00 | 55 | 1014.9 | |
| 20260507172237 | 59 | 0.0 | 0.0 | 0.00 | 0.00 | 0.00 | 52 | 1014.9 | |
| 20260507171217 | 59 | 0.0 | 0.0 | 0.00 | 0.00 | 0.00 | 52 | 1014.9 | |
| 20260507170217 | 59 | 0.0 | 0.0 | 0.00 | 0.00 | 0.00 | 51 | 1014.8 | |
| 20260507165216 | 59 | 0.0 | 0.0 | 0.00 | 0.00 | 0.00 | 52 | 1014.8 | |
| 20260507164216 | 60 | 0.0 | 0.0 | 0.00 | 0.00 | 0.00 | 46 | 1014.8 | |
| 20260507163217 | 60 | 0.0 | 0.0 | 0.00 | 0.00 | 0.00 | 42 | 1014.8 | |
| 20260507162217 | 60 | 0.0 | 0.0 | 0.00 | 0.00 | 0.00 | 46 | 1014.9 | |
| 20260507161217 | 60 | 0.0 | 0.0 | 0.00 | 0.00 | 0.00 | 42 | 1014.8 | |
| 20260507160217 | 60 | 0.0 | 0.0 | 0.00 | 0.00 | 0.00 | 48 | 1014.8 | |
| 20260507155237 | 60 | 0.0 | 0.0 | 0.00 | 0.00 | 0.00 | 48 | 1014.8 | |
| 20260507154216 | 60 | 0.0 | 0.0 | 0.00 | 0.00 | 0.00 | 43 | 1014.8 | |
| 20260507153217 | 60 | 0.0 | 0.0 | 0.00 | 0.00 | 0.00 | 43 | 1014.7 | |
| 20260507152217 | 60 | 0.0 | 0.0 | 0.00 | 0.00 | 0.00 | 42 | 1014.7 | |
| 20260507151217 | 60 | 0.0 | 0.0 | 0.00 | 0.00 | 0.00 | 42 | 1014.7 | |
| 20260507150217 | 60 | 0.0 | 0.0 | 0.00 | 0.00 | 0.00 | 44 | 1014.6 | |
| 20260507145216 | 60 | 0.0 | 0.0 | 0.00 | 0.00 | 0.00 | 45 | 1014.6 | |
| 20260507144216 | 60 | 0.0 | 0.0 | 0.00 | 0.00 | 0.00 | 47 | 1014.6 | |
| 20260507143257 | 60 | 299 | 1.0 | 3.0 | 0.00 | 0.00 | 0.00 | 45 | 1014.8 |
| 20260507142216 | 60 | 0.0 | 0.0 | 0.00 | 0.00 | 0.00 | 45 | 1014.7 | |
| 20260507141216 | 60 | 0.0 | 0.0 | 0.00 | 0.00 | 0.00 | 48 | 1014.8 | |
| 20260507140217 | 60 | 334 | 0.0 | 2.0 | 0.00 | 0.00 | 0.00 | 48 | 1014.8 |
| 20260507135216 | 60 | 329 | 1.0 | 4.0 | 0.00 | 0.00 | 0.00 | 47 | 1014.9 |
| 20260507134216 | 60 | 0.0 | 0.0 | 0.00 | 0.00 | 0.00 | 48 | 1014.9 | |
| 20260507133216 | 60 | 0.0 | 0.0 | 0.00 | 0.00 | 0.00 | 51 | 1014.9 | |
| 20260507132216 | 60 | 0.0 | 3.0 | 0.00 | 0.00 | 0.00 | 48 | 1014.8 | |
| 20260507131216 | 61 | 321 | 0.0 | 5.0 | 0.00 | 0.00 | 0.00 | 45 | 1014.8 |
| 20260507130217 | 62 | 0.0 | 0.0 | 0.00 | 0.00 | 0.00 | 45 | 1014.8 | |
| 20260507125216 | 63 | 333 | 1.0 | 4.0 | 0.00 | 0.00 | 0.00 | 44 | 1014.8 |
| 20260507124216 | 65 | 316 | 0.0 | 6.0 | 0.00 | 0.00 | 0.00 | 39 | 1014.7 |
| 20260507123216 | 66 | 51 | 0.0 | 1.0 | 0.00 | 0.00 | 0.00 | 34 | 1014.7 |
| 20260507122216 | 66 | 64 | 0.0 | 4.0 | 0.00 | 0.00 | 0.00 | 36 | 1014.6 |
| 20260507121216 | 64 | 0.0 | 0.0 | 0.00 | 0.00 | 0.00 | 38 | 1014.6 | |
| 20260507120236 | 62 | 91 | 0.0 | 2.0 | 0.00 | 0.00 | 0.00 | 43 | 1014.6 |
| 20260507115216 | 62 | 0.0 | 0.0 | 0.00 | 0.00 | 0.00 | 45 | 1014.7 | |
| 20260507114216 | 61 | 0.0 | 2.0 | 0.00 | 0.00 | 0.00 | 41 | 1014.7 | |
| 20260507113216 | 62 | 319 | 0.0 | 3.0 | 0.00 | 0.00 | 0.00 | 44 | 1014.8 |
| 20260507112216 | 62 | 0.0 | 2.0 | 0.00 | 0.00 | 0.00 | 42 | 1014.7 | |
| 20260507111216 | 62 | 134 | 1.0 | 3.0 | 0.00 | 0.00 | 0.00 | 45 | 1014.8 |
| 20260507110236 | 62 | 0.0 | 0.0 | 0.00 | 0.00 | 0.00 | 43 | 1014.7 | |
| 20260507105236 | 64 | 75 | 0.0 | 3.0 | 0.00 | 0.00 | 0.00 | 39 | 1014.8 |
| 20260507104216 | 62 | 0.0 | 0.0 | 0.00 | 0.00 | 0.00 | 41 | 1014.8 | |
| 20260507103216 | 64 | 0.0 | 0.0 | 0.00 | 0.00 | 0.00 | 37 | 1014.7 | |
| 20260507102216 | 66 | 35 | 1.0 | 3.0 | 0.00 | 0.00 | 0.00 | 38 | 1014.8 |
| 20260507101216 | 66 | 0.0 | 0.0 | 0.00 | 0.00 | 0.00 | 35 | 1014.7 | |
| 20260507100216 | 65 | 0.0 | 0.0 | 0.00 | 0.00 | 0.00 | 38 | 1014.7 | |
| 20260507095216 | 64 | 0.0 | 0.0 | 0.00 | 0.00 | 0.00 | 44 | 1014.6 | |
| 20260507094216 | 65 | 0.0 | 5.0 | 0.00 | 0.00 | 0.00 | 42 | 1014.6 | |
| 20260507093216 | 63 | 324 | 2.0 | 6.0 | 0.00 | 0.00 | 0.00 | 48 | 1014.6 |
| 20260507092216 | 62 | 316 | 1.0 | 3.0 | 0.00 | 0.00 | 0.00 | 49 | 1014.5 |
| 20260507091216 | 62 | 352 | 1.0 | 3.0 | 0.00 | 0.00 | 0.00 | 50 | 1014.5 |
| 20260507090216 | 63 | 338 | 2.0 | 5.0 | 0.00 | 0.00 | 0.00 | 48 | 1014.6 |
| 20260507085236 | 63 | 333 | 3.0 | 6.0 | 0.00 | 0.00 | 0.00 | 50 | 1014.5 |
| 20260507084216 | 63 | 334 | 3.0 | 6.0 | 0.00 | 0.00 | 0.00 | 49 | 1014.5 |
| 20260507083216 | 62 | 84 | 0.0 | 3.0 | 0.00 | 0.00 | 0.00 | 48 | 1014.4 |
| 20260507082216 | 60 | 0.0 | 1.0 | 0.00 | 0.00 | 0.00 | 57 | 1014.4 | |
| 20260507081216 | 59 | 0.0 | 1.0 | 0.00 | 0.00 | 0.00 | 58 | 1014.4 | |
| 20260507080216 | 58 | 0.0 | 0.0 | 0.00 | 0.00 | 0.00 | 59 | 1014.3 | |
| 20260507075216 | 56 | 268 | 1.0 | 2.0 | 0.00 | 0.00 | 0.00 | 63 | 1014.3 |
| 20260507074216 | 55 | 336 | 0.0 | 2.0 | 0.00 | 0.00 | 0.00 | 66 | 1014.2 |
| 20260507073216 | 54 | 328 | 2.0 | 4.0 | 0.00 | 0.00 | 0.00 | 67 | 1014.2 |
| 20260507072216 | 53 | 36 | 2.0 | 3.0 | 0.00 | 0.01 | 0.00 | 68 | 1014.1 |
| 20260507071216 | 52 | 359 | 0.0 | 1.0 | 0.00 | 0.01 | 0.00 | 70 | 1014.0 |
| 20260507070215 | 51 | 0.0 | 0.0 | 0.00 | 0.01 | 0.00 | 73 | 1014.0 | |
| 20260507065240 | 49 | 317 | 0.0 | 4.0 | 0.00 | 0.01 | 0.00 | 76 | 1014.0 |
| 20260507064217 | 49 | 321 | 1.0 | 3.0 | 0.00 | 0.02 | 0.00 | 78 | 1014.0 |
| 20260507063215 | 48 | 0.0 | 0.0 | 0.00 | 0.02 | 0.00 | 80 | 1014.0 | |
| 20260507062216 | 48 | 317 | 2.0 | 9.0 | 0.00 | 0.02 | 0.00 | 81 | 1013.9 |
| 20260507061216 | 47 | 0.0 | 0.0 | 0.00 | 0.02 | 0.00 | 84 | 1013.8 | |
| 20260507060216 | 46 | 0.0 | 0.0 | 0.00 | 0.03 | 0.00 | 86 | 1013.7 | |
| 20260507055239 | 46 | 0.0 | 0.0 | 0.00 | 0.03 | 0.00 | 86 | 1013.6 | |
| 20260507054240 | 45 | 0.0 | 0.0 | 0.00 | 0.03 | 0.00 | 87 | 1013.5 | |
| 20260507053238 | 45 | 0.0 | 0.0 | 0.00 | 0.03 | 0.00 | 87 | 1013.6 | |
| 20260507052216 | 44 | 0.0 | 0.0 | 0.00 | 0.03 | 0.00 | 88 | 1013.5 | |
| 20260507051216 | 44 | 0.0 | 0.0 | 0.00 | 0.03 | 0.00 | 87 | 1013.3 | |
| 20260507050216 | 44 | 0.0 | 0.0 | 0.00 | 0.03 | 0.00 | 88 | 1013.2 | |
| 20260507045215 | 44 | 0.0 | 0.0 | 0.00 | 0.03 | 0.00 | 88 | 1013.1 | |
| 20260507044216 | 45 | 0.0 | 0.0 | 0.00 | 0.03 | 0.00 | 88 | 1013.0 | |
| 20260507043216 | 45 | 0.0 | 0.0 | 0.00 | 0.03 | 0.00 | 88 | 1012.9 | |
| 20260507042216 | 45 | 0.0 | 0.0 | 0.00 | 0.04 | 0.00 | 87 | 1012.8 | |
| 20260507041215 | 45 | 0.0 | 0.0 | 0.00 | 0.04 | 0.00 | 87 | 1012.8 | |
| 20260507040215 | 45 | 0.0 | 0.0 | 0.00 | 0.06 | 0.00 | 87 | 1012.6 | |
| 20260507035236 | 46 | 0.0 | 0.0 | 0.00 | 0.07 | 0.00 | 87 | 1012.5 | |
| 20260507034215 | 46 | 0.0 | 0.0 | 0.00 | 0.07 | 0.00 | 87 | 1012.5 | |
| 20260507033216 | 46 | 0.0 | 0.0 | 0.00 | 0.08 | 0.00 | 87 | 1012.5 | |
| 20260507032216 | 46 | 0.0 | 0.0 | 0.00 | 0.08 | 0.00 | 87 | 1012.5 | |
| 20260507031235 | 46 | 0.0 | 0.0 | 0.00 | 0.08 | 0.00 | 87 | 1012.5 | |
| 20260507030215 | 47 | 0.0 | 0.0 | 0.00 | 0.08 | 0.00 | 87 | 1012.4 | |
| 20260507025215 | 47 | 0.0 | 0.0 | 0.00 | 0.08 | 0.00 | 87 | 1012.4 | |
| 20260507024215 | 47 | 0.0 | 0.0 | 0.00 | 0.08 | 0.00 | 87 | 1012.4 | |
| 20260507023215 | 47 | 0.0 | 0.0 | 0.00 | 0.09 | 0.00 | 87 | 1012.2 | |
| 20260507022215 | 47 | 0.0 | 0.0 | 0.00 | 0.09 | 0.00 | 87 | 1012.2 | |
| 20260507021215 | 47 | 0.0 | 0.0 | 0.00 | 0.09 | 0.00 | 87 | 1012.2 | |
| 20260507020215 | 47 | 0.0 | 0.0 | 0.00 | 0.09 | 0.00 | 87 | 1012.1 | |
| 20260507015215 | 47 | 0.0 | 0.0 | 0.00 | 0.09 | 0.00 | 87 | 1012.0 | |
| 20260507014215 | 47 | 0.0 | 0.0 | 0.00 | 0.09 | 0.00 | 87 | 1012.0 | |
| 20260507013215 | 47 | 0.0 | 0.0 | 0.00 | 0.09 | 0.00 | 87 | 1012.0 | |
| 20260507012215 | 47 | 0.0 | 0.0 | 0.00 | 0.09 | 0.00 | 87 | 1012.0 | |
| 20260507011215 | 47 | 0.0 | 0.0 | 0.00 | 0.10 | 0.00 | 87 | 1011.9 | |
| 20260507010255 | 47 | 0.0 | 0.0 | 0.00 | 0.10 | 0.00 | 87 | 1011.8 | |
| 20260507005215 | 47 | 0.0 | 0.0 | 0.00 | 0.10 | 0.00 | 87 | 1011.8 | |
| 20260507004215 | 47 | 0.0 | 0.0 | 0.00 | 0.10 | 0.00 | 86 | 1011.7 | |
| 20260507003215 | 47 | 0.0 | 0.0 | 0.00 | 0.10 | 0.00 | 86 | 1011.7 | |
| 20260507002215 | 47 | 0.0 | 0.0 | 0.00 | 0.10 | 0.00 | 86 | 1011.6 | |
| 20260507001215 | 47 | 0.0 | 0.0 | 0.00 | 0.11 | 0.00 | 86 | 1011.6 | |
| 20260507000215 | 47 | 0.0 | 0.0 | 0.00 | 0.11 | 0.00 | 86 | 1011.6 | |
| 20260506235215 | 47 | 0.0 | 0.0 | 0.00 | 0.11 | 0.00 | 86 | 1011.6 | |
| 20260506234215 | 47 | 0.0 | 0.0 | 0.00 | 0.11 | 0.00 | 86 | 1011.6 | |
| 20260506233215 | 47 | 0.0 | 0.0 | 0.00 | 0.11 | 0.00 | 86 | 1011.5 | |
| 20260506232235 | 47 | 0.0 | 0.0 | 0.00 | 0.11 | 0.00 | 86 | 1011.4 | |
| 20260506231215 | 47 | 0.0 | 0.0 | 0.00 | 0.11 | 0.00 | 86 | 1011.5 | |
| 20260506230235 | 47 | 0.0 | 0.0 | 0.00 | 0.11 | 0.00 | 86 | 1011.4 | |
| 20260506225215 | 47 | 0.0 | 0.0 | 0.00 | 0.12 | 0.00 | 86 | 1011.3 | |
| 20260506224215 | 47 | 0.0 | 0.0 | 0.00 | 0.12 | 0.00 | 86 | 1011.2 | |
| 20260506223255 | 47 | 0.0 | 0.0 | 0.00 | 0.12 | 0.00 | 85 | 1011.2 | |
| 20260506222215 | 47 | 0.0 | 0.0 | 0.00 | 0.12 | 0.00 | 85 | 1011.2 |